Time,TemperatureF,DewpointF,PressureIn,WindDirection,WindDirectionDegrees,WindSpeedMPH,WindSpeedGustMPH,Humidity,HourlyPrecipIn,Conditions,Clouds,dailyrainin,SoftwareType,DateUTC
2013-03-03 00:04:00,22.0,16.8,30.13,WNW,282,6.0,10.0,80,0.00,,,0.00,WUHU216DAVISVP2,2013-03-03 05:04:00,
2013-03-03 00:09:00,22.0,16.8,30.13,West,280,7.0,10.0,80,0.00,,,0.00,WUHU216DAVISVP2,2013-03-03 05:09:00,
2013-03-03 00:14:00,22.0,16.8,30.13,West,278,4.0,10.0,80,0.00,,,0.00,WUHU216DAVISVP2,2013-03-03 05:14:00,
2013-03-03 00:19:00,22.0,16.8,30.13,West,269,6.0,9.0,80,0.00,,,0.00,WUHU216DAVISVP2,2013-03-03 05:19:00,
2013-03-03 00:24:00,22.1,16.9,30.13,West,260,6.0,9.0,80,0.00,,,0.00,WUHU216DAVISVP2,2013-03-03 05:24:00,
2013-03-03 00:29:00,22.1,16.9,30.13,WNW,293,7.0,9.0,80,0.00,,,0.00,WUHU216DAVISVP2,2013-03-03 05:29:00,
2013-03-03 00:34:00,22.2,17.0,30.13,WNW,288,4.0,9.0,80,0.00,,,0.00,WUHU216DAVISVP2,2013-03-03 05:34:00,
2013-03-03 00:39:00,22.2,17.0,30.13,West,266,5.0,9.0,80,0.00,,,0.00,WUHU216DAVISVP2,2013-03-03 05:39:00,
2013-03-03 00:44:00,22.1,16.9,30.13,West,265,6.0,9.0,80,0.00,,,0.00,WUHU216DAVISVP2,2013-03-03 05:44:00,
2013-03-03 00:50:00,22.2,17.0,30.13,West,276,4.0,8.0,80,0.00,,,0.00,WUHU216DAVISVP2,2013-03-03 05:50:00,
2013-03-03 00:55:00,22.3,17.1,30.12,WSW,238,6.0,8.0,80,0.00,,,0.00,WUHU216DAVISVP2,2013-03-03 05:55:00,
2013-03-03 01:00:00,22.3,17.1,30.12,West,265,7.0,8.0,80,0.00,,,0.00,WUHU216DAVISVP2,2013-03-03 06:00:00,
2013-03-03 01:05:00,22.4,17.2,30.12,West,272,7.0,8.0,80,0.00,,,0.00,WUHU216DAVISVP2,2013-03-03 06:05:00,
2013-03-03 01:10:00,22.5,17.0,30.12,West,275,6.0,10.0,79,0.00,,,0.00,WUHU216DAVISVP2,2013-03-03 06:10:00,
2013-03-03 01:15:00,22.4,16.9,30.12,West,274,7.0,10.0,79,0.00,,,0.00,WUHU216DAVISVP2,2013-03-03 06:15:00,
2013-03-03 01:20:00,22.4,16.9,30.12,WSW,246,6.0,10.0,79,0.00,,,0.00,WUHU216DAVISVP2,2013-03-03 06:20:00,
2013-03-03 01:25:00,22.3,17.1,30.12,West,272,5.0,10.0,80,0.00,,,0.00,WUHU216DAVISVP2,2013-03-03 06:25:00,
2013-03-03 01:30:00,22.3,17.1,30.12,West,271,3.0,10.0,80,0.00,,,0.00,WUHU216DAVISVP2,2013-03-03 06:30:00,
2013-03-03 01:35:00,22.2,17.0,30.13,WNW,284,4.0,9.0,80,0.00,,,0.00,WUHU216DAVISVP2,2013-03-03 06:35:00,
2013-03-03 01:40:00,22.3,17.1,30.13,West,271,5.0,7.0,80,0.00,,,0.00,WUHU216DAVISVP2,2013-03-03 06:40:00,
2013-03-03 01:45:00,22.3,17.1,30.12,West,281,1.0,6.0,80,0.00,,,0.00,WUHU216DAVISVP2,2013-03-03 06:45:00,
2013-03-03 01:50:00,22.3,17.1,30.13,West,276,5.0,6.0,80,0.00,,,0.00,WUHU216DAVISVP2,2013-03-03 06:50:00,
2013-03-03 01:55:00,22.3,17.1,30.13,West,265,4.0,7.0,80,0.00,,,0.00,WUHU216DAVISVP2,2013-03-03 06:55:00,
2013-03-03 02:00:00,22.3,17.1,30.12,West,271,6.0,7.0,80,0.00,,,0.00,WUHU216DAVISVP2,2013-03-03 07:00:00,
2013-03-03 02:05:00,22.3,17.1,30.12,West,264,2.0,7.0,80,0.00,,,0.00,WUHU216DAVISVP2,2013-03-03 07:05:00,
2013-03-03 02:10:00,22.2,17.0,30.12,WSW,255,3.0,6.0,80,0.00,,,0.00,WUHU216DAVISVP2,2013-03-03 07:10:00,
2013-03-03 02:15:00,22.2,17.0,30.12,WSW,253,4.0,6.0,80,0.00,,,0.00,WUHU216DAVISVP2,2013-03-03 07:15:00,
2013-03-03 02:21:00,22.2,17.3,30.12,WSW,253,4.0,6.0,81,0.00,,,0.00,WUHU216DAVISVP2,2013-03-03 07:21:00,
2013-03-03 02:26:00,22.2,17.3,30.12,WSW,253,3.0,6.0,81,0.00,,,0.00,WUHU216DAVISVP2,2013-03-03 07:26:00,
2013-03-03 02:31:00,22.3,17.4,30.11,West,259,2.0,5.0,81,0.00,,,0.00,WUHU216DAVISVP2,2013-03-03 07:31:00,
2013-03-03 02:36:00,22.3,17.1,30.11,West,273,2.0,6.0,80,0.00,,,0.00,WUHU216DAVISVP2,2013-03-03 07:36:00,
2013-03-03 02:41:00,22.3,17.1,30.11,West,273,0.0,6.0,80,0.00,,,0.00,WUHU216DAVISVP2,2013-03-03 07:41:00,
2013-03-03 02:46:00,22.4,17.5,30.11,West,273,1.0,6.0,81,0.00,,,0.00,WUHU216DAVISVP2,2013-03-03 07:46:00,
2013-03-03 02:51:00,22.4,17.4,30.11,West,273,1.0,5.0,81,0.00,,,0.00,WUHU216DAVISVP2,2013-03-03 07:51:00,
2013-03-03 02:56:00,22.4,17.2,30.10,West,271,4.0,5.0,80,0.00,,,0.00,WUHU216DAVISVP2,2013-03-03 07:56:00,
2013-03-03 03:01:00,22.4,17.2,30.10,West,270,4.0,5.0,80,0.00,,,0.00,WUHU216DAVISVP2,2013-03-03 08:01:00,
2013-03-03 03:06:00,22.4,17.4,30.11,West,270,2.0,5.0,81,0.00,,,0.00,WUHU216DAVISVP2,2013-03-03 08:06:00,
2013-03-03 03:11:00,22.4,17.4,30.10,West,275,5.0,6.0,81,0.00,,,0.00,WUHU216DAVISVP2,2013-03-03 08:11:00,
2013-03-03 03:16:00,22.4,17.4,30.10,West,276,5.0,6.0,81,0.00,,,0.00,WUHU216DAVISVP2,2013-03-03 08:16:00,
2013-03-03 03:21:00,22.4,17.4,30.10,West,265,5.0,6.0,81,0.00,,,0.00,WUHU216DAVISVP2,2013-03-03 08:21:00,
2013-03-03 03:26:00,22.4,17.2,30.10,West,266,7.0,7.0,80,0.00,,,0.00,WUHU216DAVISVP2,2013-03-03 08:26:00,
2013-03-03 03:32:00,22.4,17.2,30.10,WNW,294,6.0,8.0,80,0.00,,,0.00,WUHU216DAVISVP2,2013-03-03 08:32:00,
2013-03-03 03:37:00,22.4,17.2,30.10,WNW,286,7.0,9.0,80,0.00,,,0.00,WUHU216DAVISVP2,2013-03-03 08:37:00,
2013-03-03 03:42:00,22.3,17.1,30.10,WNW,283,7.0,9.0,80,0.00,,,0.00,WUHU216DAVISVP2,2013-03-03 08:42:00,
2013-03-03 03:47:00,22.3,17.3,30.11,WNW,284,7.0,9.0,81,0.00,,,0.00,WUHU216DAVISVP2,2013-03-03 08:47:00,
2013-03-03 03:52:00,22.3,17.3,30.10,WNW,286,7.0,9.0,81,0.00,,,0.00,WUHU216DAVISVP2,2013-03-03 08:52:00,
2013-03-03 03:57:00,22.2,17.3,30.10,West,279,7.0,9.0,81,0.00,,,0.00,WUHU216DAVISVP2,2013-03-03 08:57:00,
2013-03-03 04:02:00,22.1,17.2,30.10,West,274,9.0,10.0,81,0.00,,,0.00,WUHU216DAVISVP2,2013-03-03 09:02:00,
2013-03-03 04:07:00,22.0,17.1,30.10,West,267,9.0,10.0,81,0.00,,,0.00,WUHU216DAVISVP2,2013-03-03 09:07:00,
2013-03-03 04:12:00,22.0,17.1,30.10,West,268,7.0,12.0,81,0.00,,,0.00,WUHU216DAVISVP2,2013-03-03 09:12:00,
2013-03-03 04:17:00,22.0,17.1,30.10,WNW,284,9.0,12.0,81,0.00,,,0.00,WUHU216DAVISVP2,2013-03-03 09:17:00,
2013-03-03 04:22:00,22.0,17.1,30.10,West,275,7.0,12.0,81,0.00,,,0.00,WUHU216DAVISVP2,2013-03-03 09:22:00,
2013-03-03 04:27:00,22.0,17.1,30.10,West,273,8.0,12.0,81,0.00,,,0.00,WUHU216DAVISVP2,2013-03-03 09:27:00,
2013-03-03 04:32:00,21.9,17.0,30.10,West,271,7.0,12.0,81,0.00,,,0.00,WUHU216DAVISVP2,2013-03-03 09:32:00,
2013-03-03 04:37:00,21.9,16.7,30.11,WNW,284,8.0,14.0,80,0.00,,,0.00,WUHU216DAVISVP2,2013-03-03 09:37:00,
2013-03-03 04:42:00,21.8,16.6,30.10,WNW,286,10.0,14.0,80,0.00,,,0.00,WUHU216DAVISVP2,2013-03-03 09:42:00,
2013-03-03 04:47:00,21.8,16.3,30.10,West,276,10.0,14.0,79,0.00,,,0.00,WUHU216DAVISVP2,2013-03-03 09:47:00,
2013-03-03 04:52:00,21.8,16.6,30.11,WNW,295,10.0,13.0,80,0.00,,,0.00,WUHU216DAVISVP2,2013-03-03 09:52:00,
2013-03-03 04:57:00,21.7,16.5,30.10,WNW,290,7.0,13.0,80,0.00,,,0.00,WUHU216DAVISVP2,2013-03-03 09:57:00,
2013-03-03 05:03:00,21.7,16.5,30.10,WNW,296,8.0,13.0,80,0.00,,,0.00,WUHU216DAVISVP2,2013-03-03 10:03:00,
2013-03-03 05:08:00,21.7,16.5,30.10,NW,306,6.0,11.0,80,0.00,,,0.00,WUHU216DAVISVP2,2013-03-03 10:08:00,
2013-03-03 05:13:00,21.7,16.5,30.10,WNW,292,5.0,10.0,80,0.00,,,0.00,WUHU216DAVISVP2,2013-03-03 10:13:00,
2013-03-03 05:18:00,21.7,16.2,30.10,WNW,296,6.0,11.0,79,0.00,,,0.00,WUHU216DAVISVP2,2013-03-03 10:18:00,
2013-03-03 05:23:00,21.7,16.2,30.10,WNW,290,5.0,11.0,79,0.00,,,0.00,WUHU216DAVISVP2,2013-03-03 10:23:00,
2013-03-03 05:28:00,21.7,16.2,30.10,WNW,298,6.0,11.0,79,0.00,,,0.00,WUHU216DAVISVP2,2013-03-03 10:28:00,
2013-03-03 05:33:00,21.7,16.2,30.10,WNW,301,6.0,11.0,79,0.00,,,0.00,WUHU216DAVISVP2,2013-03-03 10:33:00,
2013-03-03 05:38:00,21.7,16.2,30.10,West,271,5.0,10.0,79,0.00,,,0.00,WUHU216DAVISVP2,2013-03-03 10:38:00,
2013-03-03 05:43:00,21.6,16.1,30.10,WSW,256,5.0,8.0,79,0.00,,,0.00,WUHU216DAVISVP2,2013-03-03 10:43:00,
2013-03-03 05:48:00,21.7,16.2,30.10,West,281,5.0,9.0,79,0.00,,,0.00,WUHU216DAVISVP2,2013-03-03 10:48:00,
2013-03-03 05:53:00,21.7,16.2,30.10,WNW,290,7.0,9.0,79,0.00,,,0.00,WUHU216DAVISVP2,2013-03-03 10:53:00,
2013-03-03 05:58:00,21.7,16.2,30.10,West,276,6.0,9.0,79,0.00,,,0.00,WUHU216DAVISVP2,2013-03-03 10:58:00,
2013-03-03 06:03:00,21.7,16.2,30.10,West,280,7.0,7.0,79,0.00,,,0.00,WUHU216DAVISVP2,2013-03-03 11:03:00,
2013-03-03 06:08:00,21.8,16.3,30.10,WNW,284,8.0,8.0,79,0.00,,,0.00,WUHU216DAVISVP2,2013-03-03 11:08:00,
2013-03-03 06:13:00,21.8,16.0,30.10,West,268,8.0,9.0,78,0.00,,,0.00,WUHU216DAVISVP2,2013-03-03 11:13:00,
2013-03-03 06:19:00,21.8,16.0,30.10,West,271,11.0,14.0,78,0.00,,,0.00,WUHU216DAVISVP2,2013-03-03 11:19:00,
2013-03-03 06:24:00,21.8,15.7,30.10,West,268,8.0,14.0,77,0.00,,,0.00,WUHU216DAVISVP2,2013-03-03 11:24:00,
2013-03-03 06:29:00,21.9,15.8,30.10,WNW,295,8.0,14.0,77,0.00,,,0.00,WUHU216DAVISVP2,2013-03-03 11:29:00,
2013-03-03 06:34:00,21.9,15.8,30.11,West,269,8.0,14.0,77,0.00,,,0.00,WUHU216DAVISVP2,2013-03-03 11:34:00,
2013-03-03 06:39:00,21.9,15.5,30.11,West,269,8.0,13.0,76,0.00,,,0.00,WUHU216DAVISVP2,2013-03-03 11:39:00,
2013-03-03 06:44:00,21.9,15.5,30.11,West,269,12.0,13.0,76,0.00,,,0.00,WUHU216DAVISVP2,2013-03-03 11:44:00,
2013-03-03 06:49:00,21.9,15.5,30.11,WNW,290,13.0,15.0,76,0.00,,,0.00,WUHU216DAVISVP2,2013-03-03 11:49:00,
2013-03-03 06:54:00,21.9,15.5,30.11,WNW,294,8.0,15.0,76,0.00,,,0.00,WUHU216DAVISVP2,2013-03-03 11:54:00,
2013-03-03 06:59:00,21.8,15.1,30.11,WNW,293,12.0,15.0,75,0.00,,,0.00,WUHU216DAVISVP2,2013-03-03 11:59:00,
2013-03-03 07:04:00,21.8,15.1,30.11,West,277,11.0,15.0,75,0.00,,,0.00,WUHU216DAVISVP2,2013-03-03 12:04:00,
2013-03-03 07:09:00,21.7,15.0,30.11,NW,311,9.0,15.0,75,0.00,,,0.00,WUHU216DAVISVP2,2013-03-03 12:09:00,
2013-03-03 07:14:00,21.7,15.3,30.11,WNW,296,11.0,15.0,76,0.00,,,0.00,WUHU216DAVISVP2,2013-03-03 12:14:00,
2013-03-03 07:19:00,21.7,15.0,30.11,West,279,10.0,15.0,75,0.00,,,0.00,WUHU216DAVISVP2,2013-03-03 12:19:00,
2013-03-03 07:24:00,21.7,15.3,30.11,WNW,284,11.0,15.0,76,0.00,,,0.00,WUHU216DAVISVP2,2013-03-03 12:24:00,
2013-03-03 07:29:00,21.7,15.3,30.11,WNW,298,9.0,13.0,76,0.00,,,0.00,WUHU216DAVISVP2,2013-03-03 12:29:00,
2013-03-03 07:34:00,21.7,15.0,30.11,NW,311,9.0,13.0,75,0.00,,,0.00,WUHU216DAVISVP2,2013-03-03 12:34:00,
2013-03-03 07:40:00,21.7,15.3,30.11,WNW,302,9.0,13.0,76,0.00,,,0.00,WUHU216DAVISVP2,2013-03-03 12:40:00,
2013-03-03 07:45:00,21.7,15.3,30.11,West,276,9.0,13.0,76,0.00,,,0.00,WUHU216DAVISVP2,2013-03-03 12:45:00,
2013-03-03 07:50:00,21.6,14.9,30.11,WNW,285,10.0,14.0,75,0.00,,,0.00,WUHU216DAVISVP2,2013-03-03 12:50:00,
2013-03-03 07:55:00,21.7,15.3,30.11,West,281,10.0,14.0,76,0.00,,,0.00,WUHU216DAVISVP2,2013-03-03 12:55:00,
2013-03-03 08:00:00,21.6,14.9,30.11,West,281,6.0,14.0,75,0.00,,,0.00,WUHU216DAVISVP2,2013-03-03 13:00:00,
2013-03-03 08:05:00,21.7,15.6,30.12,WNW,284,7.0,14.0,77,0.00,,,0.00,WUHU216DAVISVP2,2013-03-03 13:05:00,
2013-03-03 08:10:00,21.8,15.7,30.12,WNW,285,7.0,13.0,77,0.00,,,0.00,WUHU216DAVISVP2,2013-03-03 13:10:00,
2013-03-03 08:15:00,21.8,15.7,30.12,WNW,284,4.0,11.0,77,0.00,,,0.00,WUHU216DAVISVP2,2013-03-03 13:15:00,
2013-03-03 08:20:00,22.0,15.6,30.12,WNW,298,9.0,12.0,76,0.00,,,0.00,WUHU216DAVISVP2,2013-03-03 13:20:00,
2013-03-03 08:25:00,21.9,15.5,30.12,WNW,289,8.0,13.0,76,0.00,,,0.00,WUHU216DAVISVP2,2013-03-03 13:25:00,
2013-03-03 08:30:00,21.9,15.5,30.12,WNW,300,8.0,13.0,76,0.00,,,0.00,WUHU216DAVISVP2,2013-03-03 13:30:00,
2013-03-03 08:35:00,21.9,15.8,30.12,WNW,296,9.0,13.0,77,0.00,,,0.00,WUHU216DAVISVP2,2013-03-03 13:35:00,
2013-03-03 08:40:00,21.9,15.5,30.12,WNW,296,8.0,13.0,76,0.00,,,0.00,WUHU216DAVISVP2,2013-03-03 13:40:00,
2013-03-03 08:45:00,22.1,16.0,30.12,WNW,294,9.0,12.0,77,0.00,,,0.00,WUHU216DAVISVP2,2013-03-03 13:45:00,
2013-03-03 08:50:00,22.1,16.0,30.12,WNW,296,5.0,12.0,77,0.00,,,0.00,WUHU216DAVISVP2,2013-03-03 13:50:00,
2013-03-03 08:56:00,22.2,16.1,30.12,NW,314,6.0,10.0,77,0.00,,,0.00,WUHU216DAVISVP2,2013-03-03 13:56:00,
2013-03-03 09:01:00,22.2,16.1,30.12,West,273,9.0,10.0,77,0.00,,,0.00,WUHU216DAVISVP2,2013-03-03 14:01:00,
2013-03-03 09:06:00,22.1,15.7,30.12,WSW,252,7.0,11.0,76,0.00,,,0.00,WUHU216DAVISVP2,2013-03-03 14:06:00,
2013-03-03 09:11:00,22.2,16.1,30.12,WNW,284,7.0,13.0,77,0.00,,,0.00,WUHU216DAVISVP2,2013-03-03 14:11:00,
2013-03-03 09:16:00,22.2,15.8,30.12,West,263,7.0,13.0,76,0.00,,,0.00,WUHU216DAVISVP2,2013-03-03 14:16:00,
2013-03-03 09:21:00,22.4,16.0,30.12,West,261,11.0,13.0,76,0.00,,,0.00,WUHU216DAVISVP2,2013-03-03 14:21:00,
2013-03-03 09:26:00,22.1,15.4,30.12,WSW,253,12.0,14.0,75,0.00,,,0.00,WUHU216DAVISVP2,2013-03-03 14:26:00,
2013-03-03 09:31:00,22.1,15.4,30.12,WSW,250,12.0,15.0,75,0.00,,,0.00,WUHU216DAVISVP2,2013-03-03 14:31:00,
2013-03-03 09:36:00,22.2,15.5,30.13,SW,236,13.0,15.0,75,0.00,,,0.00,WUHU216DAVISVP2,2013-03-03 14:36:00,
2013-03-03 09:41:00,22.2,15.2,30.13,WSW,257,9.0,15.0,74,0.00,,,0.00,WUHU216DAVISVP2,2013-03-03 14:41:00,
2013-03-03 09:46:00,22.3,15.6,30.13,WSW,250,7.0,15.0,75,0.00,,,0.00,WUHU216DAVISVP2,2013-03-03 14:46:00,
2013-03-03 09:51:00,22.4,15.7,30.13,WSW,256,8.0,14.0,75,0.00,,,0.00,WUHU216DAVISVP2,2013-03-03 14:51:00,
2013-03-03 09:56:00,22.5,15.8,30.12,WSW,242,8.0,15.0,75,0.00,,,0.00,WUHU216DAVISVP2,2013-03-03 14:56:00,
2013-03-03 10:01:00,22.4,15.4,30.12,WSW,251,14.0,15.0,74,0.00,,,0.00,WUHU216DAVISVP2,2013-03-03 15:01:00,
2013-03-03 10:06:00,22.5,15.8,30.12,WNW,291,7.0,16.0,75,0.00,,,0.00,WUHU216DAVISVP2,2013-03-03 15:06:00,
2013-03-03 10:11:00,22.5,15.8,30.12,West,269,11.0,16.0,75,0.00,,,0.00,WUHU216DAVISVP2,2013-03-03 15:11:00,
2013-03-03 10:16:00,22.4,15.1,30.12,West,268,11.0,16.0,73,0.00,,,0.00,WUHU216DAVISVP2,2013-03-03 15:16:00,
2013-03-03 10:21:00,22.2,14.9,30.11,West,271,10.0,15.0,73,0.00,,,0.00,WUHU216DAVISVP2,2013-03-03 15:21:00,
2013-03-03 10:27:00,22.9,15.3,30.12,West,277,7.0,15.0,72,0.00,,,0.00,WUHU216DAVISVP2,2013-03-03 15:27:00,
2013-03-03 10:32:00,23.2,15.9,30.12,West,261,8.0,15.0,73,0.00,,,0.00,WUHU216DAVISVP2,2013-03-03 15:32:00,
2013-03-03 10:37:00,23.2,15.2,30.12,WSW,243,10.0,14.0,71,0.00,,,0.00,WUHU216DAVISVP2,2013-03-03 15:37:00,
2013-03-03 10:42:00,23.1,15.1,30.12,NW,306,10.0,14.0,71,0.00,,,0.00,WUHU216DAVISVP2,2013-03-03 15:42:00,
2013-03-03 10:47:00,23.3,15.3,30.12,West,267,6.0,14.0,71,0.00,,,0.00,WUHU216DAVISVP2,2013-03-03 15:47:00,
2013-03-03 10:52:00,23.5,16.2,30.12,NW,308,10.0,14.0,73,0.00,,,0.00,WUHU216DAVISVP2,2013-03-03 15:52:00,
2013-03-03 10:57:00,24.3,16.6,30.12,NW,315,6.0,14.0,72,0.00,,,0.00,WUHU216DAVISVP2,2013-03-03 15:57:00,
2013-03-03 11:02:00,24.1,15.8,30.12,NW,307,12.0,13.0,70,0.00,,,0.00,WUHU216DAVISVP2,2013-03-03 16:02:00,
2013-03-03 11:07:00,23.8,15.2,30.12,NW,304,7.0,13.0,69,0.00,,,0.00,WUHU216DAVISVP2,2013-03-03 16:07:00,
2013-03-03 11:12:00,23.9,14.9,30.12,WSW,250,14.0,16.0,68,0.00,,,0.00,WUHU216DAVISVP2,2013-03-03 16:12:00,
2013-03-03 11:17:00,24.0,15.0,30.12,SW,228,10.0,16.0,68,0.00,,,0.00,WUHU216DAVISVP2,2013-03-03 16:17:00,
2013-03-03 11:22:00,24.2,15.2,30.12,WNW,296,7.0,16.0,68,0.00,,,0.00,WUHU216DAVISVP2,2013-03-03 16:22:00,
2013-03-03 11:27:00,24.3,16.0,30.12,West,279,8.0,16.0,70,0.00,,,0.00,WUHU216DAVISVP2,2013-03-03 16:27:00,
2013-03-03 11:32:00,24.7,16.0,30.12,WNW,284,9.0,16.0,69,0.00,,,0.00,WUHU216DAVISVP2,2013-03-03 16:32:00,
2013-03-03 11:37:00,24.8,15.8,30.12,WNW,297,8.0,13.0,68,0.00,,,0.00,WUHU216DAVISVP2,2013-03-03 16:37:00,
2013-03-03 11:43:00,25.1,16.4,30.12,WNW,298,8.0,13.0,69,0.00,,,0.00,WUHU216DAVISVP2,2013-03-03 16:43:00,
2013-03-03 11:48:00,25.1,16.4,30.12,WNW,298,8.0,13.0,69,0.00,,,0.00,WUHU216DAVISVP2,2013-03-03 16:48:00,
2013-03-03 11:53:00,25.3,15.9,30.12,WNW,291,11.0,12.0,67,0.00,,,0.00,WUHU216DAVISVP2,2013-03-03 16:53:00,
2013-03-03 11:58:00,25.0,15.6,30.12,WNW,292,8.0,13.0,67,0.00,,,0.00,WUHU216DAVISVP2,2013-03-03 16:58:00,
2013-03-03 12:03:00,25.2,15.5,30.12,West,271,10.0,14.0,66,0.00,,,0.00,WUHU216DAVISVP2,2013-03-03 17:03:00,
2013-03-03 12:08:00,25.1,15.7,30.11,NW,310,8.0,14.0,67,0.00,,,0.00,WUHU216DAVISVP2,2013-03-03 17:08:00,
2013-03-03 12:13:00,25.1,15.3,30.12,West,279,5.0,14.0,66,0.00,,,0.00,WUHU216DAVISVP2,2013-03-03 17:13:00,
2013-03-03 12:18:00,25.7,16.3,30.11,WNW,282,10.0,14.0,67,0.00,,,0.00,WUHU216DAVISVP2,2013-03-03 17:18:00,
2013-03-03 12:23:00,26.0,16.9,30.11,West,275,7.0,14.0,68,0.00,,,0.00,WUHU216DAVISVP2,2013-03-03 17:23:00,
2013-03-03 12:28:00,25.8,16.4,30.11,WSW,254,13.0,14.0,67,0.00,,,0.00,WUHU216DAVISVP2,2013-03-03 17:28:00,
2013-03-03 12:33:00,25.7,16.3,30.11,WSW,254,11.0,19.0,67,0.00,,,0.00,WUHU216DAVISVP2,2013-03-03 17:33:00,
2013-03-03 12:38:00,25.9,17.5,30.11,WNW,298,8.0,19.0,70,0.00,,,0.00,WUHU216DAVISVP2,2013-03-03 17:38:00,
2013-03-03 12:43:00,25.9,16.1,30.10,WNW,288,12.0,19.0,66,0.00,,,0.00,WUHU216DAVISVP2,2013-03-03 17:43:00,
2013-03-03 12:48:00,26.2,16.4,30.10,West,267,10.0,19.0,66,0.00,,,0.00,WUHU216DAVISVP2,2013-03-03 17:48:00,
2013-03-03 12:53:00,26.1,17.0,30.10,West,261,10.0,18.0,68,0.00,,,0.00,WUHU216DAVISVP2,2013-03-03 17:53:00,
2013-03-03 12:58:00,26.0,16.9,30.10,WSW,244,11.0,18.0,68,0.00,,,0.00,WUHU216DAVISVP2,2013-03-03 17:58:00,
2013-03-03 13:04:00,26.0,16.9,30.10,WNW,286,11.0,16.0,68,0.00,,,0.00,WUHU216DAVISVP2,2013-03-03 18:04:00,
2013-03-03 13:09:00,26.3,16.9,30.10,West,260,13.0,16.0,67,0.00,,,0.00,WUHU216DAVISVP2,2013-03-03 18:09:00,
2013-03-03 13:14:00,26.4,16.3,30.10,WSW,246,14.0,16.0,65,0.00,,,0.00,WUHU216DAVISVP2,2013-03-03 18:14:00,
2013-03-03 13:19:00,26.7,17.2,30.09,West,278,14.0,16.0,67,0.00,,,0.00,WUHU216DAVISVP2,2013-03-03 18:19:00,
2013-03-03 13:24:00,26.8,17.0,30.09,West,263,9.0,16.0,66,0.00,,,0.00,WUHU216DAVISVP2,2013-03-03 18:24:00,
2013-03-03 13:29:00,26.7,16.2,30.09,West,267,11.0,16.0,64,0.00,,,0.00,WUHU216DAVISVP2,2013-03-03 18:29:00,
2013-03-03 13:34:00,26.5,16.4,30.09,WNW,295,10.0,16.0,65,0.00,,,0.00,WUHU216DAVISVP2,2013-03-03 18:34:00,
2013-03-03 13:39:00,26.7,15.8,30.09,West,271,11.0,16.0,63,0.00,,,0.00,WUHU216DAVISVP2,2013-03-03 18:39:00,
2013-03-03 13:44:00,26.9,16.4,30.08,West,272,11.0,16.0,64,0.00,,,0.00,WUHU216DAVISVP2,2013-03-03 18:44:00,
2013-03-03 13:49:00,26.8,16.3,30.08,West,277,11.0,15.0,64,0.00,,,0.00,WUHU216DAVISVP2,2013-03-03 18:49:00,
2013-03-03 13:54:00,26.9,16.4,30.08,WNW,288,14.0,16.0,64,0.00,,,0.00,WUHU216DAVISVP2,2013-03-03 18:54:00,
2013-03-03 13:59:00,27.0,16.8,30.08,WNW,284,14.0,16.0,65,0.00,,,0.00,WUHU216DAVISVP2,2013-03-03 18:59:00,
2013-03-03 14:04:00,27.5,16.6,30.08,WNW,294,13.0,16.0,63,0.00,,,0.00,WUHU216DAVISVP2,2013-03-03 19:04:00,
2013-03-03 14:09:00,27.4,16.9,30.08,West,279,9.0,16.0,64,0.00,,,0.00,WUHU216DAVISVP2,2013-03-03 19:09:00,
2013-03-03 14:14:00,27.2,15.9,30.08,WSW,245,15.0,18.0,62,0.00,,,0.00,WUHU216DAVISVP2,2013-03-03 19:14:00,
2013-03-03 14:19:00,27.1,16.2,30.07,WNW,294,11.0,18.0,63,0.00,,,0.00,WUHU216DAVISVP2,2013-03-03 19:19:00,
2013-03-03 14:25:00,27.5,17.0,30.07,WSW,250,15.0,18.0,64,0.00,,,0.00,WUHU216DAVISVP2,2013-03-03 19:25:00,
2013-03-03 14:30:00,27.2,15.9,30.07,West,281,7.0,19.0,62,0.00,,,0.00,WUHU216DAVISVP2,2013-03-03 19:30:00,
2013-03-03 14:35:00,27.4,15.8,30.07,West,280,11.0,19.0,61,0.00,,,0.00,WUHU216DAVISVP2,2013-03-03 19:35:00,
2013-03-03 14:40:00,27.5,16.6,30.07,SW,225,11.0,19.0,63,0.00,,,0.00,WUHU216DAVISVP2,2013-03-03 19:40:00,
2013-03-03 14:45:00,27.8,15.4,30.08,West,277,12.0,21.0,59,0.00,,,0.00,WUHU216DAVISVP2,2013-03-03 19:45:00,
2013-03-03 14:50:00,27.6,15.6,30.07,WSW,247,12.0,21.0,60,0.00,,,0.00,WUHU216DAVISVP2,2013-03-03 19:50:00,
2013-03-03 14:55:00,28.1,16.8,30.07,WNW,291,13.0,21.0,62,0.00,,,0.00,WUHU216DAVISVP2,2013-03-03 19:55:00,
2013-03-03 15:00:00,28.1,16.0,30.08,WNW,292,12.0,21.0,60,0.00,,,0.00,WUHU216DAVISVP2,2013-03-03 20:00:00,
2013-03-03 15:05:00,28.3,17.0,30.07,WNW,292,12.0,20.0,62,0.00,,,0.00,WUHU216DAVISVP2,2013-03-03 20:05:00,
2013-03-03 15:10:00,28.0,15.5,30.07,West,277,15.0,20.0,59,0.00,,,0.00,WUHU216DAVISVP2,2013-03-03 20:10:00,
2013-03-03 15:15:00,28.6,17.7,30.07,West,261,12.0,20.0,63,0.00,,,0.00,WUHU216DAVISVP2,2013-03-03 20:15:00,
2013-03-03 15:20:00,28.3,16.2,30.07,WNW,294,10.0,20.0,60,0.00,,,0.00,WUHU216DAVISVP2,2013-03-03 20:20:00,
2013-03-03 15:25:00,28.8,17.5,30.07,West,275,8.0,20.0,62,0.00,,,0.00,WUHU216DAVISVP2,2013-03-03 20:25:00,
2013-03-03 15:30:00,28.7,16.6,30.07,WNW,286,13.0,18.0,60,0.00,,,0.00,WUHU216DAVISVP2,2013-03-03 20:30:00,
2013-03-03 15:35:00,28.7,17.0,30.07,WNW,294,19.0,19.0,61,0.00,,,0.00,WUHU216DAVISVP2,2013-03-03 20:35:00,
2013-03-03 15:40:00,28.3,16.2,30.05,West,267,8.0,21.0,60,0.00,,,0.00,WUHU216DAVISVP2,2013-03-03 20:40:00,
2013-03-03 15:45:00,28.5,16.4,30.07,WNW,284,12.0,21.0,60,0.00,,,0.00,WUHU216DAVISVP2,2013-03-03 20:45:00,
2013-03-03 15:50:00,28.6,16.1,30.07,West,261,10.0,21.0,59,0.00,,,0.00,WUHU216DAVISVP2,2013-03-03 20:50:00,
2013-03-03 15:56:00,29.0,17.3,30.07,West,270,12.0,19.0,61,0.00,,,0.00,WUHU216DAVISVP2,2013-03-03 20:56:00,
2013-03-03 16:01:00,28.9,16.7,30.07,WSW,238,13.0,20.0,60,0.00,,,0.00,WUHU216DAVISVP2,2013-03-03 21:01:00,
2013-03-03 16:06:00,29.0,16.9,30.07,WSW,246,10.0,20.0,60,0.00,,,0.00,WUHU216DAVISVP2,2013-03-03 21:06:00,
2013-03-03 16:11:00,29.1,16.6,30.07,WSW,256,10.0,20.0,59,0.00,,,0.00,WUHU216DAVISVP2,2013-03-03 21:11:00,
2013-03-03 16:17:00,29.3,17.2,30.07,WNW,292,13.0,20.0,60,0.00,,,0.00,WUHU216DAVISVP2,2013-03-03 21:17:00,
2013-03-03 16:22:00,29.2,16.3,30.07,West,277,8.0,15.0,58,0.00,,,0.00,WUHU216DAVISVP2,2013-03-03 21:22:00,
2013-03-03 16:27:00,29.2,15.5,30.07,WSW,250,12.0,18.0,56,0.00,,,0.00,WUHU216DAVISVP2,2013-03-03 21:27:00,
2013-03-03 16:33:00,29.3,16.0,30.07,WNW,290,11.0,18.0,57,0.00,,,0.00,WUHU216DAVISVP2,2013-03-03 21:33:00,
2013-03-03 16:38:00,29.4,16.5,30.07,WSW,250,16.0,18.0,58,0.00,,,0.00,WUHU216DAVISVP2,2013-03-03 21:38:00,
2013-03-03 16:44:00,29.3,16.0,30.07,West,263,12.0,18.0,57,0.00,,,0.00,WUHU216DAVISVP2,2013-03-03 21:44:00,
2013-03-03 16:50:00,29.6,16.7,30.08,West,261,9.0,16.0,58,0.00,,,0.00,WUHU216DAVISVP2,2013-03-03 21:50:00,
2013-03-03 16:56:00,29.4,16.9,30.07,West,279,8.0,15.0,59,0.00,,,0.00,WUHU216DAVISVP2,2013-03-03 21:56:00,
2013-03-03 17:00:00,29.6,16.2,30.07,WSW,248,10.0,14.0,57,0.00,,,0.00,WUHU216DAVISVP2,2013-03-03 22:00:00,
2013-03-03 17:01:00,29.4,16.9,30.07,West,279,8.0,15.0,59,0.00,,,0.00,WUHU216DAVISVP2,2013-03-03 22:01:00,
2013-03-03 17:15:00,29.6,17.0,30.08,WSW,248,10.0,15.0,59,0.00,,,0.00,WUHU216DAVISVP2,2013-03-03 22:15:00,
2013-03-03 17:30:00,29.4,16.8,30.08,WSW,248,10.0,14.0,59,0.00,,,0.00,WUHU216DAVISVP2,2013-03-03 22:30:00,
2013-03-03 17:45:00,29.2,17.4,30.08,WSW,248,9.0,13.0,61,0.00,,,0.00,WUHU216DAVISVP2,2013-03-03 22:45:00,
2013-03-03 18:00:00,28.8,17.0,30.08,WSW,248,10.0,15.0,61,0.00,,,0.00,WUHU216DAVISVP2,2013-03-03 23:00:00,
2013-03-03 18:15:00,28.1,17.1,30.09,WSW,248,6.0,10.0,63,0.00,,,0.00,WUHU216DAVISVP2,2013-03-03 23:15:00,
2013-03-03 18:30:00,27.5,16.9,30.09,WSW,248,7.0,11.0,64,0.00,,,0.00,WUHU216DAVISVP2,2013-03-03 23:30:00,
2013-03-03 18:45:00,26.8,16.6,30.09,WSW,248,5.0,9.0,65,0.00,,,0.00,WUHU216DAVISVP2,2013-03-03 23:45:00,
2013-03-03 19:00:00,26.5,16.7,30.10,WSW,248,3.0,6.0,66,0.00,,,0.00,WUHU216DAVISVP2,2013-03-04 00:00:00,
2013-03-03 19:15:00,26.0,16.5,30.10,WSW,248,4.0,6.0,67,0.00,,,0.00,WUHU216DAVISVP2,2013-03-04 00:15:00,
2013-03-03 19:30:00,25.6,16.2,30.10,WSW,248,2.0,4.0,67,0.00,,,0.00,WUHU216DAVISVP2,2013-03-04 00:30:00,
2013-03-03 19:45:00,25.2,16.1,30.10,WSW,248,2.0,4.0,68,0.00,,,0.00,WUHU216DAVISVP2,2013-03-04 00:45:00,
2013-03-03 20:00:00,24.4,16.3,30.11,WSW,248,2.0,5.0,71,0.00,,,0.00,WUHU216DAVISVP2,2013-03-04 01:00:00,
2013-03-03 20:15:00,24.3,16.2,30.11,WSW,248,2.0,7.0,71,0.00,,,0.00,WUHU216DAVISVP2,2013-03-04 01:15:00,
2013-03-03 20:30:00,24.3,16.2,30.11,WSW,248,5.0,8.0,71,0.00,,,0.00,WUHU216DAVISVP2,2013-03-04 01:30:00,
2013-03-03 20:45:00,24.2,16.1,30.12,WSW,248,6.0,9.0,71,0.00,,,0.00,WUHU216DAVISVP2,2013-03-04 01:45:00,
2013-03-03 21:00:00,24.1,16.4,30.12,WSW,248,6.0,9.0,72,0.00,,,0.00,WUHU216DAVISVP2,2013-03-04 02:00:00,
2013-03-03 21:15:00,24.2,16.5,30.12,WSW,248,7.0,11.0,72,0.00,,,0.00,WUHU216DAVISVP2,2013-03-04 02:15:00,
2013-03-03 21:30:00,23.6,16.2,30.12,WSW,248,7.0,10.0,73,0.00,,,0.00,WUHU216DAVISVP2,2013-03-04 02:30:00,
2013-03-03 21:45:00,23.2,16.1,30.12,WSW,248,6.0,9.0,74,0.00,,,0.00,WUHU216DAVISVP2,2013-03-04 02:45:00,
2013-03-03 22:00:00,22.8,16.1,30.13,WSW,248,6.0,10.0,75,0.00,,,0.00,WUHU216DAVISVP2,2013-03-04 03:00:00,
2013-03-03 22:15:00,22.4,16.0,30.13,WSW,248,5.0,8.0,76,0.00,,,0.00,WUHU216DAVISVP2,2013-03-04 03:15:00,
2013-03-03 22:30:00,22.1,16.0,30.13,WSW,248,5.0,8.0,77,0.00,,,0.00,WUHU216DAVISVP2,2013-03-04 03:30:00,
2013-03-03 22:45:00,21.6,15.8,30.12,SW,225,4.0,7.0,78,0.00,,,0.00,WUHU216DAVISVP2,2013-03-04 03:45:00,
2013-03-03 23:00:00,21.3,15.5,30.12,WSW,248,4.0,7.0,78,0.00,,,0.00,WUHU216DAVISVP2,2013-03-04 04:00:00,
2013-03-03 23:15:00,21.2,15.7,30.12,WSW,248,4.0,5.0,79,0.00,,,0.00,WUHU216DAVISVP2,2013-03-04 04:15:00,
2013-03-03 23:30:00,21.1,15.6,30.12,WSW,248,3.0,7.0,79,0.00,,,0.00,WUHU216DAVISVP2,2013-03-04 04:30:00,
2013-03-03 23:45:00,20.6,15.4,30.12,WSW,248,4.0,6.0,80,0.00,,,0.00,WUHU216DAVISVP2,2013-03-04 04:45:00,